Flag for France Weather past 2 weeks in Bastia, Corsica, France

Now
77 °F

Sunny.


Feels Like: 79 °F
Forecast: 71 / 80 °F
Wind: No wind

Location: Bastia Airport

Current Time: Jul 31, 2015 at 10:25:10 PM

Latest Report: Jul 31, 2015 at 9:30 PM


Visibility: 10 mi

Pressure: 29.86 "Hg

Humidity: 79%

Dew point: 70 °F

Location of BastiaLocation

Historic Weather in Bastia — Graph

°F

Bastia temperature yesterday

Maximum temperature yesterday: 90 °F (at 5:30 PM)
Minimum temperature yesterday: 70 °F (at 3:30 AM)
Average temperature yesterday: 80 °F

Past Weeks' High & Low Weather Summary

 TemperatureHumidityPressure
High91 °F (Jul 18, 3:30 PM)94% (Jul 16, 10:30 PM)30.07 "Hg (Jul 16, 10:30 PM)
Low70 °F (Jul 17, 2:30 AM)32% (Jul 26, 6:00 AM)29.71 "Hg (Jul 27, 7:00 PM)
Average81 °F67%29.87 "Hg
* Reported Jul 16 9:00 PM — Jul 31 9:00 PM, Bastia, Weather by CustomWeather, © 2015

Note: Actual official high and low records may vary slightly from our data, if they occured in-between our weather recording intervals... More about our weather records

Advertising

Bastia weather history for previous 24 hours

 ConditionsComfort  
Time TempWeatherWind HumidityBarometerVisibility
9:00 PM
Fri, Jul 31
79 °FSunny.3 mph74%29.86 "Hg10 mi
8:30 PM81 °FPassing clouds.3 mph70%29.83 "HgN/A
8:00 PM82 °FPassing clouds.6 mph70%29.83 "HgN/A
7:30 PM82 °FPassing clouds.7 mph66%29.83 "HgN/A
7:00 PM82 °FPassing clouds.8 mph66%29.83 "HgN/A
6:30 PM84 °FPassing clouds.9 mph66%29.83 "HgN/A
6:00 PM86 °FPassing clouds.10 mph62%29.83 "HgN/A
5:00 PM88 °FPassing clouds.8 mph55%29.83 "HgN/A
4:30 PM86 °FPassing clouds.7 mph59%29.83 "HgN/A
4:00 PM86 °FPassing clouds.6 mph59%29.83 "HgN/A
3:30 PM86 °FPassing clouds.8 mph62%29.83 "HgN/A
3:00 PM86 °FPassing clouds.9 mph62%29.83 "HgN/A
2:30 PM86 °FPassing clouds.8 mph62%29.83 "HgN/A
2:00 PM86 °FPassing clouds.7 mph62%29.83 "HgN/A
1:30 PM86 °FPassing clouds.9 mph62%29.83 "HgN/A
1:00 PM86 °FPassing clouds.9 mph62%29.83 "HgN/A
12:30 PM84 °FPassing clouds.9 mph66%29.86 "HgN/A
12:00 PM84 °FPassing clouds.8 mph66%29.83 "HgN/A
11:30 AM84 °FBroken clouds.9 mph66%29.83 "HgN/A
11:00 AM81 °FBroken clouds.10 mph70%29.83 "HgN/A
10:30 AM82 °FScattered clouds.9 mph58%29.83 "HgN/A
9:30 AM82 °FScattered clouds.7 mph58%29.80 "HgN/A
9:00 AM82 °FPassing clouds.7 mph58%29.80 "HgN/A
8:30 AM81 °FPassing clouds.6 mph66%29.80 "HgN/A
8:00 AM79 °FScattered clouds.2 mph65%29.80 "HgN/A
7:30 AM75 °FScattered clouds.1 mph69%29.80 "HgN/A
7:00 AM73 °FPassing clouds.3 mph69%29.80 "HgN/A
6:30 AM72 °FPassing clouds.5 mph78%29.77 "HgN/A
6:00 AM72 °FPassing clouds.5 mph78%29.77 "HgN/A
5:00 AM75 °FPassing clouds.5 mph69%29.80 "HgN/A
4:30 AM75 °FPassing clouds.5 mph65%29.80 "HgN/A
4:00 AM75 °FClear.2 mph65%29.80 "Hg10 mi
3:30 AM73 °FClear.No wind69%29.80 "Hg10 mi
3:00 AM73 °FClear.1 mph69%29.80 "Hg10 mi
2:30 AM73 °FClear.3 mph69%29.80 "Hg10 mi
2:00 AM73 °FClear.5 mph69%29.80 "Hg10 mi
1:30 AM73 °FClear.3 mph74%29.80 "Hg10 mi
1:05 AM75 °FClear.No wind69%29.80 "Hg10 mi
12:30 AM77 °FClear.2 mph65%29.80 "Hg10 mi
12:00 AM75 °FClear.2 mph69%29.80 "Hg10 mi
11:30 PM
Thu, Jul 30
77 °FClear.3 mph65%29.80 "Hg10 mi
11:00 PM77 °FClear.5 mph65%29.80 "Hg10 mi
10:30 PM77 °FPassing clouds.3 mph69%29.80 "HgN/A
10:00 PM79 °FPassing clouds.No wind65%29.80 "HgN/A
Weather by CustomWeather, © 2015

See weather overviewHow to use our weather pages